DW7831 Weather Reports


time (UTC)temp
C
wind
direction
speed
KPH
gust
KPH
rain 1hr
cm
rain 24hr
cm
rain mn
cm
humidity
%
barometer
mb
20260903070021 18 217 8.0 0.0 0.00 0.00 0.15 100 1014.3
20260903064527 17 215 9.7 0.0 0.00 0.00 0.15 100 1014.3
20260903063015 17 202 8.0 0.0 0.00 0.00 0.15 100 1014.3
20260903061517 17 212 6.4 0.0 0.00 0.00 0.15 100 1014.3
20260903060014 17 247 6.4 0.0 0.00 0.00 0.15 100 1014.2
20260903054505 17 201 6.4 0.0 0.00 0.00 0.15 100 1014.3
20260903053101 17 233 6.4 0.0 0.00 0.00 0.15 100 1014.6
20260903051603 17 194 8.0 0.0 0.00 0.00 0.15 100 1015.1
20260903050052 17 191 8.0 0.0 0.00 0.00 0.13 100 1016.0
20260903044547 17 219 4.8 0.0 0.00 0.00 0.05 100 1016.0
20260903043045 17 171 8.0 0.0 0.00 0.00 0.03 100 1015.1
20260903041543 17 201 8.0 0.0 0.00 0.00 0.03 100 1015.3
20260903040035 17 193 8.0 0.0 0.00 0.00 0.00 100 1014.7
20260903034540 17 192 6.4 0.0 0.00 0.00 1.07 100 1016.0
20260903033027 17 195 4.8 0.0 0.00 0.00 0.97 100 1017.0
20260903031522 17 203 6.4 0.0 0.00 0.00 0.79 100 1016.8
20260903030019 17 200 8.0 0.0 0.00 0.00 0.66 100 1017.1
20260903024516 17 212 4.8 0.0 0.00 0.00 0.56 100 1016.8
20260903023011 18 183 6.4 0.0 0.00 0.00 0.51 100 1016.5
20260903021509 18 173 8.0 0.0 0.00 0.00 0.51 100 1017.0
20260903020005 18 178 9.7 0.0 0.00 0.00 0.51 100 1017.0
20260903014503 18 190 6.4 0.0 0.00 0.00 0.51 100 1017.1
20260903013100 18 140 4.8 0.0 0.00 0.00 0.51 100 1017.5
20260903011603 18 202 6.4 0.0 0.00 0.00 0.51 100 1017.7
20260903010051 18 195 4.8 0.0 0.00 0.00 0.51 100 1017.4
20260903004544 18 200 4.8 0.0 0.00 0.00 0.51 100 1017.5
20260903003039 18 184 8.0 0.0 0.00 0.00 0.51 100 1017.6
20260903001535 18 158 9.7 0.0 0.00 0.00 0.51 100 1017.2
20260903000031 18 188 11.3 0.0 0.00 0.00 0.51 100 1017.0
20260902234529 18 186 14.5 0.0 0.00 0.00 0.51 100 1016.2
20260902233025 18 137 8.0 0.0 0.00 0.00 0.51 100 1016.2
20260902231520 19 131 4.8 0.0 0.00 0.00 0.51 100 1017.0
20260902230015 19 188 3.2 0.0 0.00 0.00 0.51 100 1017.2
20260902224515 20 186 1.6 0.0 0.00 0.00 0.51 100 1017.2
20260902223010 20 182 4.8 0.0 0.00 0.00 0.51 100 1017.3
20260902221507 20 172 3.2 0.0 0.00 0.00 0.51 100 1017.7
20260902220001 20 169 4.8 0.0 0.00 0.00 0.51 100 1017.6
20260902214600 20 176 1.6 0.0 0.00 0.00 0.51 100 1017.6
20260902213055 20 207 4.8 0.0 0.00 0.00 0.51 100 1017.5
20260902211552 21 179 1.6 0.0 0.00 0.00 0.51 100 1017.6
20260902210047 21 180 3.2 0.0 0.00 0.00 0.51 2 1018.1
20260902204544 21 186 3.2 0.0 0.00 0.00 0.51 11 1018.0
20260902203038 22 199 1.6 0.0 0.00 0.00 0.51 18 1017.8
20260902201537 22 191 4.8 0.0 0.00 0.00 0.51 22 1017.7
20260902200032 22 223 4.8 0.0 0.00 0.00 0.51 21 1018.0
20260902194530 22 189 6.4 0.0 0.00 0.00 0.51 16 1017.9
20260902193024 22 209 3.2 0.0 0.00 0.00 0.51 7 1017.9
20260902191519 21 197 3.2 0.0 0.00 0.00 0.51 100 1017.8
20260902190019 20 227 3.2 0.0 0.00 0.00 0.51 100 1017.9
20260902184515 19 211 4.8 0.0 0.00 0.00 0.51 100 1018.0
20260902183010 19 215 4.8 0.0 0.00 0.00 0.51 100 1018.2
20260902181506 19 196 4.8 0.0 0.00 0.00 0.51 100 1018.4
20260902180001 19 207 4.8 0.0 0.00 0.00 0.51 100 1018.4
20260902174557 19 198 0.0 0.0 0.00 0.00 0.51 100 1018.5
20260902173053 19 196 0.0 0.0 0.00 0.00 0.51 100 1018.5
20260902171603 18 196 0.0 0.0 0.00 0.00 0.48 100 1019.1
20260902170047 18 196 3.2 0.0 0.00 0.00 0.41 100 1019.4
20260902164540 19 203 4.8 0.0 0.00 0.00 0.28 100 1020.5
20260902163036 20 236 4.8 0.0 0.00 0.00 0.03 100 1020.8
20260902161532 20 97 0.0 0.0 0.00 0.00 0.00 100 1019.5
20260902160027 20 82 0.0 0.0 0.00 0.00 0.00 100 1019.1
20260902154521 20 80 0.0 0.0 0.00 0.00 0.00 100 1019.2
20260902153020 20 135 1.6 0.0 0.00 0.00 0.00 100 1019.2
20260902151513 20 143 0.0 0.0 0.00 0.00 0.00 100 1019.1
20260902150014 21 169 1.6 0.0 0.00 0.00 0.00 100 1019.2
20260902144510 21 175 1.6 0.0 0.00 0.00 0.00 100 1019.0
20260902143008 21 177 0.0 0.0 0.00 0.00 0.00 100 1019.1
20260902141501 20 186 4.8 0.0 0.00 0.00 0.00 100 1019.3
20260902140058 20 186 4.8 0.0 0.00 0.00 0.00 100 1019.5
20260902134557 20 64 0.0 0.0 0.00 0.00 0.00 100 1019.1
20260902133104 19 64 0.0 0.0 0.00 0.00 0.00 100 1019.1
20260902131550 18 63 1.6 0.0 0.00 0.00 0.00 100 1019.1
20260902130044 18 62 1.6 0.0 0.00 0.00 0.00 100 1019.2
20260902124537 18 63 0.0 0.0 0.00 0.00 0.00 100 1018.9
20260902123035 18 63 0.0 0.0 0.00 0.00 0.00 100 1018.9
20260902121528 18 63 0.0 0.0 0.00 0.00 0.00 100 1018.7
20260902120030 18 63 3.2 0.0 0.00 0.00 0.00 100 1018.5
20260902114519 18 63 0.0 0.0 0.00 0.00 0.00 100 1018.4
20260902113015 -17 0.0 0.0 0.00 0.00 0.00 1018.5
20260902111532 -17 0.0 0.0 0.00 0.00 0.00 1018.5
20260902110019 -17 0.0 0.0 0.00 0.00 0.00 1018.9
20260902104502 -17 0.0 0.0 0.00 0.00 0.00 1019.3
20260902103057 17 63 1.6 0.0 0.00 0.00 0.00 100 1019.0
20260902101553 17 61 1.6 0.0 0.00 0.00 0.00 100 1019.0
20260902100049 17 61 0.0 0.0 0.00 0.00 0.00 100 1018.8
20260902094551 17 60 0.0 0.0 0.00 0.00 0.00 100 1018.7
20260902093044 17 60 0.0 0.0 0.00 0.00 0.00 100 1018.7
20260902091539 17 60 0.0 0.0 0.00 0.00 0.00 100 1018.6
20260902090034 17 61 1.6 0.0 0.00 0.00 0.00 100 1018.5
20260902084539 17 61 3.2 0.0 0.00 0.00 0.00 100 1018.2
20260902083027 17 58 1.6 0.0 0.00 0.00 0.00 100 1018.2
20260902081522 17 60 3.2 0.0 0.00 0.00 0.00 100 1017.9
20260902080019 17 65 1.6 0.0 0.00 0.00 0.00 100 1018.0
20260902074516 18 64 4.8 0.0 0.00 0.00 0.00 100 1017.6
20260902073011 18 71 4.8 0.0 0.00 0.00 0.00 100 1017.9
20260902071507 18 72 3.2 0.0 0.00 0.00 0.00 100 1018.1